Newport Airport, OR

10:11 PM PDT on June 28, 2017 (GMT -0700)
Newport Municipal

Weather History for KONP - November, 2013

Change the Weather History Date:

Monday, November 4, 2013

  Actual Average Record
Temperature  
Mean Temperature 47 °F -  
Max Temperature 50 °F 54 °F 66 °F (1997)
Min Temperature 44 °F 43 °F 33 °F (2011)
Degree Days  
Heating Degree Days 18    
Moisture  
Dew Point 47 °F    
Average Humidity 95    
Maximum Humidity 100    
Minimum Humidity 87    
Precipitation  
Precipitation 0.34 in - - ()
Sea Level Pressure  
Sea Level Pressure 30.17 in    
Wind  
Wind Speed 8 mph (South)    
Max Wind Speed 21 mph    
Max Gust Speed 29 mph    
Visibility 6 miles    
Events Rain    
Averages and records for this station are not official NWS values.
T = Trace of Precipitation, MM = Missing Value Source: NWS Daily Summary

Daily Weather History Graph

Daily Weather History Graph

Search for Another Location

Airport or City:

Trip Planner

Search our weather history database for the weather conditions in past years. The results will help you decide how hot, cold, wet, or windy it might be!

Date:

Astronomy

Nov. 04, 2013 Rise Set
Actual Time 6:58 AM PST 5:00 PM PST
Civil Twilight 6:27 AM PST 5:31 PM PST
Nautical Twilight 5:53 AM PST 6:05 PM PST
Astronomical Twilight 5:19 AM PST 6:39 PM PST
Moon 8:17 AM PST (11/4) 6:07 PM PST (11/4)
Length of Visible Light 11h 03m
Length of Day
10h 02m
New Moon, 2% of the Moon is Illuminated
Nov 4
New Moon
Nov 9
First Quarter
Nov 17
Full
Nov 25
Last Quarter
Dec 2
New

Hourly Weather History & Observations

Time (PST) Temp. Windchill Dew Point Humidity Pressure Visibility Wind Dir Wind Speed Gust Speed Precip Events Conditions
12:15 AM 44.6 °F 40.7 °F 44.6 °F 100% 30.19 in 4.0 mi South 6.9 mph - 0.01 in Rain Light Rain
12:35 AM 46.4 °F 43.5 °F 44.6 °F 93% 30.20 in 5.0 mi South 5.8 mph - 0.03 in Rain Rain
12:55 AM 46.4 °F 40.7 °F 44.6 °F 93% 30.19 in 5.0 mi SSW 12.7 mph - 0.08 in Rain Light Rain
1:15 AM 46.4 °F 42.9 °F 44.6 °F 93% 30.18 in 10.0 mi SSE 6.9 mph - N/A   Overcast
1:35 AM 46.4 °F 42.9 °F 44.6 °F 93% 30.18 in 10.0 mi South 6.9 mph - N/A   Overcast
1:55 AM 44.6 °F 40.2 °F 44.6 °F 100% 30.18 in 7.0 mi South 8.1 mph - N/A   Drizzle
2:15 AM 44.6 °F 39.7 °F 44.6 °F 100% 30.18 in 10.0 mi South 9.2 mph - N/A   Overcast
2:35 AM 44.6 °F 40.2 °F 44.6 °F 100% 30.18 in 10.0 mi South 8.1 mph - N/A   Overcast
2:55 AM 44.6 °F 40.7 °F 44.6 °F 100% 30.18 in 10.0 mi South 6.9 mph - N/A   Overcast
3:15 AM 44.6 °F 39.7 °F 44.6 °F 100% 30.18 in 10.0 mi South 9.2 mph - N/A   Light Drizzle
3:35 AM 44.6 °F 40.2 °F 44.6 °F 100% 30.17 in 10.0 mi South 8.1 mph - N/A   Overcast
3:55 AM 44.6 °F 40.7 °F 44.6 °F 100% 30.17 in 10.0 mi South 6.9 mph - N/A   Drizzle
4:15 AM 46.4 °F 42.4 °F 44.6 °F 93% 30.18 in 7.0 mi South 8.1 mph - N/A Rain Rain
4:35 AM 46.4 °F 42.9 °F 44.6 °F 93% 30.17 in 5.0 mi South 6.9 mph - 0.01 in Rain Rain
4:55 AM 46.4 °F 44.3 °F 44.6 °F 93% 30.18 in 4.0 mi South 4.6 mph - 0.02 in Rain Rain
5:15 AM 46.4 °F 41.5 °F 44.6 °F 93% 30.18 in 5.0 mi South 10.4 mph - N/A   Light Drizzle
5:35 AM 46.4 °F 41.5 °F 44.6 °F 93% 30.18 in 4.0 mi South 10.4 mph - N/A   Heavy Drizzle
5:55 AM 46.4 °F 41.9 °F 44.6 °F 93% 30.19 in 4.0 mi South 9.2 mph - 0.01 in Rain Heavy Rain
6:15 AM 46.4 °F 41.1 °F 46.4 °F 100% 30.19 in 3.0 mi South 11.5 mph - 0.01 in   Drizzle
6:35 AM 46.4 °F 41.5 °F 46.4 °F 100% 30.18 in 5.0 mi South 10.4 mph - 0.02 in   Drizzle
6:55 AM 46.4 °F 41.9 °F 46.4 °F 100% 30.19 in 7.0 mi South 9.2 mph - 0.02 in   Overcast
7:15 AM 46.4 °F 41.9 °F 46.4 °F 100% 30.18 in 5.0 mi South 9.2 mph - N/A   Overcast
7:35 AM 46.4 °F 41.9 °F 46.4 °F 100% 30.18 in 5.0 mi South 9.2 mph - N/A   Overcast
7:55 AM 46.4 °F 42.4 °F 46.4 °F 100% 30.18 in 7.0 mi South 8.1 mph - N/A   Overcast
8:15 AM 46.4 °F 42.4 °F 46.4 °F 100% 30.18 in 10.0 mi South 8.1 mph - N/A   Overcast
8:35 AM 46.4 °F 42.4 °F 46.4 °F 100% 30.19 in 10.0 mi South 8.1 mph - N/A   Overcast
8:55 AM 48.2 °F - 46.4 °F 93% 30.18 in 10.0 mi South 10.4 mph - N/A   Overcast
9:15 AM 48.2 °F - 46.4 °F 93% 30.19 in 10.0 mi South 8.1 mph - N/A   Overcast
9:35 AM 48.2 °F - 46.4 °F 93% 30.20 in 10.0 mi SSW 8.1 mph - N/A   Overcast
9:55 AM 50.0 °F - 46.4 °F 87% 30.20 in 10.0 mi South 8.1 mph - N/A   Overcast
10:15 AM 50.0 °F - 46.4 °F 87% 30.20 in 10.0 mi SSW 8.1 mph - N/A   Overcast
10:35 AM 50.0 °F - 46.4 °F 87% 30.20 in 10.0 mi South 8.1 mph - N/A   Overcast
10:55 AM 50.0 °F - 46.4 °F 87% 30.20 in 3.0 mi South 9.2 mph - N/A   Overcast
11:15 AM 50.0 °F - 46.4 °F 87% 30.20 in 10.0 mi SSE 6.9 mph - N/A   Overcast
11:35 AM 50.0 °F - 46.4 °F 87% 30.20 in 10.0 mi South 9.2 mph - N/A   Overcast
11:55 AM 50.0 °F - 46.4 °F 87% 30.19 in 10.0 mi South 8.1 mph - N/A   Overcast
12:15 PM 50.0 °F - 46.4 °F 87% 30.19 in 7.0 mi SSW 6.9 mph - N/A   Overcast
12:35 PM 50.0 °F - 46.4 °F 87% 30.19 in 7.0 mi SSW 6.9 mph - N/A Rain Light Rain
12:55 PM 50.0 °F - 46.4 °F 87% 30.19 in 10.0 mi South 6.9 mph - N/A Rain Light Rain
1:15 PM 50.0 °F - 46.4 °F 87% 30.19 in 7.0 mi South 9.2 mph - N/A Rain Light Rain
1:35 PM 50.0 °F - 48.2 °F 94% 30.19 in 4.0 mi SSW 8.1 mph - 0.01 in Rain Light Rain
1:55 PM 48.2 °F - 46.4 °F 93% 30.19 in 2.5 mi SSW 8.1 mph - 0.01 in Rain Light Rain
2:15 PM 48.2 °F - 46.4 °F 93% 30.18 in 3.0 mi SSW 12.7 mph - N/A   Light Drizzle
2:35 PM 50.0 °F - 46.4 °F 87% 30.17 in 5.0 mi South 9.2 mph - N/A   Drizzle
2:55 PM 48.2 °F - 46.4 °F 93% 30.17 in 2.5 mi SSW 8.1 mph - N/A Rain Light Rain
3:15 PM 48.2 °F - 46.4 °F 93% 30.17 in 2.0 mi South 4.6 mph - N/A   Heavy Drizzle
3:35 PM 48.2 °F - 46.4 °F 93% 30.17 in 2.0 mi South 5.8 mph - 0.02 in   Heavy Drizzle
3:55 PM 48.2 °F - 46.4 °F 93% 30.17 in 2.0 mi SSW 5.8 mph - 0.02 in   Heavy Drizzle
4:15 PM 48.2 °F - 46.4 °F 93% 30.18 in 1.8 mi South 3.5 mph - 0.01 in Rain Light Rain
4:35 PM 48.2 °F - 46.4 °F 93% 30.17 in 2.0 mi SSE 5.8 mph - 0.02 in Rain Heavy Rain
4:55 PM 48.2 °F - 46.4 °F 93% 30.17 in 4.0 mi South 5.8 mph - 0.03 in   Drizzle
5:15 PM 48.2 °F - 46.4 °F 93% 30.16 in 7.0 mi South 5.8 mph - N/A   Drizzle
5:35 PM 48.2 °F - 46.4 °F 93% 30.16 in 7.0 mi South 6.9 mph - 0.01 in Rain Rain
5:55 PM 48.2 °F - 46.4 °F 93% 30.16 in 7.0 mi South 8.1 mph - 0.01 in   Drizzle
6:15 PM 48.2 °F - 46.4 °F 93% 30.16 in 5.0 mi South 6.9 mph - N/A   Drizzle
6:35 PM 48.2 °F - 46.4 °F 93% 30.17 in 10.0 mi South 6.9 mph - 0.01 in Rain Light Rain
6:55 PM 48.2 °F - 48.2 °F 100% 30.16 in 10.0 mi South 9.2 mph - 0.01 in Rain Light Rain
7:15 PM 50.0 °F - 48.2 °F 94% 30.17 in 7.0 mi South 6.9 mph - 0.01 in   Drizzle
7:35 PM 50.0 °F - 48.2 °F 94% 30.16 in 7.0 mi South 8.1 mph - 0.01 in   Drizzle
7:55 PM 50.0 °F - 48.2 °F 94% 30.15 in 5.0 mi South 8.1 mph - 0.02 in Rain Rain
8:15 PM 50.0 °F - 48.2 °F 94% 30.14 in 7.0 mi South 8.1 mph - N/A   Drizzle
8:35 PM 50.0 °F - 48.2 °F 94% 30.14 in 5.0 mi South 8.1 mph - 0.01 in   Drizzle
8:55 PM 50.0 °F - 48.2 °F 94% 30.14 in 4.0 mi South 8.1 mph - 0.01 in   Heavy Drizzle
9:15 PM 50.0 °F - 50.0 °F 100% 30.14 in 4.0 mi South 9.2 mph - 0.01 in   Heavy Drizzle
9:35 PM 50.0 °F - 50.0 °F 100% 30.14 in 4.0 mi South 8.1 mph - 0.02 in Rain Rain
9:55 PM 50.0 °F - 50.0 °F 100% 30.14 in 3.0 mi South 6.9 mph - 0.03 in   Heavy Drizzle
10:15 PM 50.0 °F - 50.0 °F 100% 30.14 in 3.0 mi South 15.0 mph 20.7 mph 0.01 in   Heavy Drizzle
10:35 PM 50.0 °F - 50.0 °F 100% 30.14 in 3.0 mi South 12.7 mph 20.7 mph 0.03 in Rain Heavy Rain
10:55 PM 50.0 °F - 50.0 °F 100% 30.14 in 2.5 mi South 17.3 mph - 0.05 in Rain Heavy Rain
11:15 PM 50.0 °F - 50.0 °F 100% 30.13 in 2.5 mi South 17.3 mph 23.0 mph 0.01 in Rain Rain
11:35 PM 50.0 °F - 50.0 °F 100% 30.13 in 2.5 mi South 20.7 mph 28.8 mph 0.01 in Rain Light Rain
11:55 PM 50.0 °F - 50.0 °F 100% 30.14 in 3.0 mi South 16.1 mph 28.8 mph 0.02 in Rain Light Rain